sat.trackr.live / text

‹ back to catalog

STARLINK-32575

NORAD 62173 · 2024-225L

PAYLOAD ACTIVE UNKNOWN

§ Identity

Operator
Country
US
Launch date
2024-11-30
Launch site
AFWTR
Launch vehicle
Mass (kg)
RCS (m²)

Purposes: comms

External: N2YO · Heavens-Above · Gunter

§ Orbital elements

Epoch: 2026-05-24T21:21:04.578048Z

Period
96.11 min
Inclination
70.0013°
Eccentricity
0.0002527
Mean motion
14.98328803 rev/d
Perigee alt
570.3 km
Apogee alt
573.8 km
Semi-major
6,950.2 km
B*
3.3503e-4
RAAN
322.1369°
Arg perigee
274.1029°
Mean anomaly
85.9841°
Rev number
8,154

§ Raw data

STARLINK-325751 62173U 24225L   26144.88963632  .00003907  00000+0  33503-3 0  99912 62173  70.0013 322.1369 0002527 274.1029  85.9841 14.98328803 81548

JSON: /api/v1/satellites/62173 · /tle

For live sub-satellite position, see the globe view (requires WebGL).

§ Visibility from observer

Set your observer location to see the next 7 days of passes ≥ 10°. The values pass through the URL so the page stays shareable.

No JS? Fill the form by hand. The geolocation button needs JavaScript.